EHI
26 28 30 21 9 6 8 7 5 3 2 1 0 0 0 0 0 0 1 2 2 1 2 4 5 7 11 16 23 31 35 36 36 36 37 36 33 32 30 27 23 17 12
47 44 39 33 24 18 16 12 10 9 7 5 3 2 1 0 0 0 1 2 2 3 6 8 9 10 12 13 18 25 31 34 38 42 46 48 52 55 53 49 43 33 25
58 54 54 52 43 31 24 19 17 15 12 8 6 5 3 1 1 1 1 1 1 4 9 11 12 11 9 7 9 14 20 26 32 38 44 49 57 66 72 72 67 58 50
46 52 61 57 42 31 25 20 17 15 11 6 4 4 2 2 2 1 1 1 2 3 6 9 8 6 4 2 2 4 8 14 19 24 29 35 43 54 65 74 76 74 70
29 41 49 41 27 22 19 13 11 8 5 2 1 1 1 1 2 1 1 2 3 3 2 2 2 1 0 0 0 1 2 5 8 11 15 21 29 39 51 64 73 78 80
16 22 26 20 13 10 8 5 3 2 0 0 0 0 0 0 0 0 0 1 2 2 1 0 0 0 0 0 0 0 0 0 1 3 6 11 18 26 35 47 59 69 74
6 7 8 7 4 2 2 1 1 0 0 0 0 0 0 0 0 0 0 0 1 1 0 0 0 0 0 0 0 0 0 0 0 0 2 4 8 12 17 24 34 45 50
1 1 1 1 1 0 0 0 0 0 0 0 0 0 0 0 0 0 0 0 0 0 0 0 0 0 0 0 0 0 0 0 0 0 0 1 2 3 4 7 12 19 25
0 0 0 0 0 0 0 0 0 0 0 0 0 0 0 0 0 0 0 0 0 0 0 0 0 0 0 0 0 0 0 0 0 0 0 0 0 0 0 1 2 5 8
0 0 0 0 0 0 0 0 0 0 0 0 0 0 0 0 0 0 0 0 0 0 0 0 0 0 0 0 0 0 0 0 0 0 0 0 0 0 0 0 0 0 1
0 0 0 0 0 0 0 0 0 0 0 0 0 0 0 0 0 0 0 0 0 0 0 0 0 0 0 0 0 0 0 0 0 0 0 0 0 0 0 0 0 0 0
0 0 0 0 0 0 0 0 0 0 0 0 0 0 0 0 0 0 0 0 0 0 0 0 0 0 0 0 0 0 0 0 0 0 0 0 0 0 0 0 0 0 0
0 0 0 0 0 0 0 0 0 0 0 0 0 0 0 0 0 0 0 0 0 0 0 0 0 0 0 0 0 0 0 0 0 0 0 0 0 0 0 0 0 0 0
0 0 0 0 0 0 0 0 0 0 0 0 0 0 0 0 0 0 0 0 0 0 0 0 0 0 0 0 0 0 0 0 0 0 0 0 0 0 0 0 0 0 0
0 0 0 0 0 0 0 0 0 0 0 0 0 0 0 0 0 0 0 0 0 0 0 0 0 0 0 0 0 0 0 0 0 0 0 0 0 0 0 0 0 0 0
0 0 0 0 0 0 0 0 0 0 0 0 0 0 0 0 0 0 0 0 0 0 0 0 0 0 0 0 0 0 0 0 0 0 0 0 0 0 0 0 0 0 0
0 0 0 0 0 0 0 0 0 0 0 0 0 0 0 0 0 0 0 0 0 0 0 0 0 0 0 0 0 0 0 0 0 0 0 0 0 0 0 0 0 0 0
0 0 0 0 0 0 0 0 0 0 0 0 0 0 0 0 0 0 0 0 0 0 0 0 0 0 0 0 0 0 0 0 0 0 0 0 0 0 0 0 0 0 0
0 0 0 0 0 0 0 0 0 0 0 0 0 0 0 0 0 0 0 0 0 0 0 0 0 0 0 0 0 0 0 0 0 0 0 0 0 0 0 0 0 0 0
0 0 0 0 0 0 0 0 0 0 0 0 0 0 0 0 0 0 0 0 0 0 0 0 0 0 0 0 0 0 0 0 0 0 0 0 0 0 0 0 0 0 0
0 0 0 0 0 0 0 0 0 0 0 0 0 0 0 0 0 0 0 0 0 0 0 0 0 0 0 0 0 0 0 0 0 0 0 0 0 0 0 0 0 0 0
0 0 0 0 0 0 0 0 0 0 0 0 0 0 0 0 0 0 0 0 0 0 0 0 0 0 0 0 0 0 0 0 0 0 0 0 0 0 0 0 0 0 0
0 0 0 0 0 0 0 0 0 0 0 0 0 0 0 0 0 0 0 0 0 0 0 0 0 0 0 0 0 0 0 0 0 0 0 0 0 0 0 0 0 0 0
0 0 0 0 0 0 0 0 0 0 0 0 0 0 0 0 0 0 0 0 0 0 0 0 0 0 0 0 0 0 0 0 0 0 0 0 0 0 0 0 0 0 0
0 0 0 0 0 0 0 0 0 0 0 0 0 0 0 0 0 0 0 0 0 0 0 0 0 0 0 0 0 0 0 0 0 0 0 0 0 0 0 0 0 0 0
0 0 0 0 0 0 0 0 0 0 0 0 0 0 0 0 0 0 0 0 0 0 0 0 0 0 0 0 0 0 0 0 0 0 0 0 0 0 0 0 0 0 0
Wind_Speed
1 2 2 2 2 1 1 2 2 3 3 3 4 4 5 5 4 1 5 9 10 9 9 8 7 6 5 4 4 5 6 7 8 8 9 10 10 10 10 12 13 14 15
3 3 2 2 3 3 4 3 4 3 2 2 3 4 4 5 4 4 2 6 9 9 10 10 9 7 6 5 5 5 6 6 7 8 8 9 10 12 12 13 14 15 16
3 2 1 2 3 3 3 3 5 4 3 4 4 4 3 4 4 4 3 2 4 9 11 10 9 8 7 7 7 8 9 9 8 8 9 9 10 10 12 14 15 16 17
3 1 3 5 3 3 3 3 4 5 5 5 5 5 5 4 5 5 4 4 2 2 8 11 10 9 9 10 11 12 12 12 11 11 11 11 11 11 11 12 14 16 18
4 3 5 4 4 3 5 5 6 5 5 5 5 5 4 4 5 7 6 5 4 3 2 6 11 11 12 12 13 14 15 15 14 13 13 13 13 13 12 12 12 14 16
5 4 5 5 4 4 4 3 3 3 3 4 7 6 4 5 5 6 7 6 3 3 3 3 2 6 11 12 14 15 16 16 16 16 16 16 16 14 14 13 12 13 14
6 5 4 3 2 3 2 2 3 4 4 3 4 5 4 6 6 4 4 3 1 2 3 3 2 2 3 9 11 14 15 17 17 17 16 16 16 16 17 17 16 15 14
4 5 4 2 3 1 0 1 2 2 4 4 4 4 4 5 3 5 4 4 4 4 4 6 5 5 4 3 6 14 15 15 17 17 17 16 16 17 19 20 20 18 16
5 5 3 3 3 3 2 2 2 3 3 4 3 2 3 3 5 5 7 5 5 3 3 4 6 6 6 5 5 8 12 9 12 14 16 16 16 17 19 20 20 20 19
4 3 2 3 3 3 3 3 6 3 3 4 4 3 3 2 2 4 5 6 6 5 4 6 6 6 6 5 6 10 10 9 12 15 16 16 16 17 19 20 20 20 19
3 3 3 3 1 1 4 3 2 3 3 3 4 5 5 4 4 4 6 5 5 5 4 4 4 4 6 6 6 10 13 12 12 14 15 15 16 18 19 19 19 19 18
4 4 4 2 1 2 2 0 0 3 1 2 2 4 4 4 4 5 7 6 6 5 6 6 6 5 6 7 10 13 10 11 11 12 13 14 16 18 19 19 19 18 18
5 4 4 1 1 1 2 2 2 3 2 2 2 3 3 3 4 5 6 7 8 6 7 6 6 6 7 5 6 10 7 8 11 12 13 15 16 17 18 18 18 18 17
6 5 2 1 1 2 3 1 2 4 3 3 5 5 4 5 5 4 5 7 10 8 7 7 5 6 7 6 6 8 5 9 12 14 15 15 16 17 17 17 17 17 17
3 3 1 1 2 2 2 2 4 4 4 5 5 6 5 5 4 5 5 5 8 12 11 8 7 7 6 6 9 6 6 10 14 15 16 17 17 18 18 18 17 17 16
3 0 2 2 2 3 4 4 4 5 5 5 5 6 6 5 5 5 5 6 6 9 12 8 7 8 8 11 13 9 8 14 16 16 17 18 19 19 19 18 18 17 16
0 3 2 3 4 4 5 5 5 6 7 7 7 7 7 7 6 5 5 6 6 7 11 9 7 8 10 10 9 8 9 9 9 17 18 19 20 20 19 18 17 16 16
2 3 3 4 5 5 4 5 6 7 6 7 7 7 7 7 7 6 6 7 7 7 10 12 9 9 10 10 10 10 10 11 8 12 13 14 16 17 17 16 15 14 13
2 4 4 5 5 5 6 8 9 9 9 9 9 9 8 8 8 6 7 8 7 9 7 10 11 9 9 10 10 11 11 8 9 9 8 7 10 12 14 14 14 13 11
4 5 5 6 7 9 11 11 11 10 9 9 9 9 9 8 7 7 7 7 7 7 7 8 9 9 9 9 8 7 7 5 5 6 7 9 10 12 14 14 14 14 13
6 6 6 7 7 7 9 10 10 10 10 10 10 9 9 12 14 10 9 7 8 8 8 8 9 9 9 8 7 6 7 7 7 5 5 6 6 6 7 12 15 15 14
5 6 7 7 7 6 6 9 9 9 10 10 10 9 10 12 13 13 16 17 14 11 9 9 9 10 11 10 8 8 8 9 8 3 4 6 4 5 4 4 8 11 13
6 6 6 6 5 3 2 4 9 10 10 9 9 10 11 11 13 10 12 15 14 16 17 13 12 12 12 10 9 10 9 10 10 5 4 6 4 5 4 4 7 7 7
5 5 5 5 5 2 1 4 10 10 9 9 9 10 11 11 12 11 11 11 10 11 13 11 10 10 9 8 9 11 12 11 9 6 5 4 3 3 3 3 7 7 7
4 5 5 5 5 3 1 5 9 10 8 9 10 11 12 12 13 13 12 12 12 10 12 13 11 11 13 13 11 8 7 6 4 2 2 2 1 2 2 3 4 6 8
4 5 6 5 6 5 4 5 10 9 9 10 10 10 12 12 14 14 11 10 11 9 7 7 7 7 7 7 9 6 5 3 2 0 1 1 1 1 2 1 2 2 5
Wind_Direction
152 95 67 51 341 50 109 357 357 37 21 328 325 342 350 342 333 20 139 161 161 166 173 181 190 202 215 228 235 237 239 239 239 237 234 230 227 222 216 209 204 201 201
72 52 62 62 0 18 40 353 348 2 340 352 339 333 333 325 329 348 137 169 179 180 186 192 197 205 219 237 254 261 261 260 255 250 245 239 233 228 222 217 213 209 206
78 47 69 74 27 3 18 5 358 346 344 345 337 339 332 326 318 322 317 239 190 196 202 203 204 211 226 244 258 267 270 269 268 268 264 258 250 243 235 228 222 217 214
77 46 59 62 9 1 21 21 17 3 4 354 348 341 332 320 309 294 278 274 266 227 206 210 211 220 234 249 261 268 272 275 275 275 276 274 270 263 254 244 236 229 222
84 71 73 55 4 26 37 23 33 11 350 341 316 295 296 302 303 295 291 285 284 290 261 217 218 233 249 262 268 272 274 276 279 283 285 286 286 283 276 264 252 242 234
68 65 91 64 36 47 49 38 13 347 314 292 293 301 308 293 287 277 271 266 257 264 279 294 253 253 266 274 279 281 279 277 276 278 281 283 286 293 296 290 277 260 247
71 53 77 80 62 64 50 15 21 332 318 318 316 306 294 286 278 280 299 288 314 348 342 331 321 318 303 293 286 281 279 277 277 276 277 283 289 293 294 292 288 280 264
72 77 54 38 51 28 35 42 40 341 321 341 324 306 303 296 329 354 339 345 3 1 344 328 336 326 313 297 279 280 281 278 275 275 277 282 289 292 292 290 285 282 277
80 58 53 40 19 329 69 25 21 9 342 322 294 305 315 316 344 322 344 350 347 339 332 331 311 297 292 287 282 280 282 280 273 273 276 281 287 290 289 286 284 280 276
100 98 73 62 23 354 56 18 59 355 329 306 326 347 325 322 300 307 313 309 315 320 307 291 288 290 287 279 271 264 258 244 253 262 269 276 282 286 287 286 282 280 277
127 118 98 73 24 28 64 25 30 344 323 355 355 342 332 324 286 273 294 307 309 291 288 291 293 294 293 284 273 262 253 236 237 247 256 266 276 282 283 283 282 278 275
157 139 128 99 297 60 76 322 56 276 354 19 339 319 315 317 324 320 308 303 300 311 326 322 307 288 281 279 278 281 258 229 221 228 243 258 270 277 278 278 280 279 277
136 113 104 117 338 91 234 225 233 254 246 223 239 267 285 310 304 298 300 303 302 302 301 300 299 305 306 310 316 312 282 242 226 228 240 251 261 268 271 273 277 279 280
94 126 131 192 252 261 283 11 310 272 244 222 248 258 260 262 263 274 282 291 291 287 279 278 285 292 295 294 293 294 282 267 248 240 240 244 251 258 262 267 271 274 276
105 99 99 238 255 262 273 276 265 280 266 247 248 253 251 254 257 260 264 269 282 289 287 285 282 280 279 280 275 274 268 270 269 259 246 238 241 248 253 259 264 269 271
68 15 251 252 263 263 257 252 264 270 278 270 262 262 263 265 269 272 272 271 269 276 283 283 280 280 288 291 290 285 277 276 275 273 259 240 236 240 245 252 258 263 267
169 252 258 268 266 261 256 254 259 267 269 272 278 282 283 285 286 285 283 281 279 279 285 290 291 294 291 289 288 284 281 270 264 263 259 247 241 240 242 246 251 257 263
275 297 301 294 291 292 292 291 295 306 317 321 320 316 311 309 309 306 303 302 298 296 295 298 300 299 295 297 289 281 282 276 265 265 262 254 248 244 241 239 242 248 254
309 308 313 315 318 331 355 5 7 4 356 341 331 323 319 316 311 312 311 303 299 297 296 295 295 292 289 286 286 285 279 275 277 277 275 265 260 255 244 234 234 237 239
344 349 355 356 2 32 36 22 8 350 341 331 321 314 310 307 302 300 297 289 289 290 287 284 284 285 285 284 286 287 293 296 295 305 311 300 282 263 247 235 231 232 231
8 9 6 7 12 48 37 21 358 345 333 318 311 308 305 302 295 286 283 284 286 283 282 281 283 287 290 294 296 301 301 302 292 285 283 281 277 264 244 233 233 236 232
14 10 13 12 13 36 46 24 358 333 316 311 312 311 305 297 301 299 292 289 284 282 282 280 282 283 286 289 292 295 293 291 287 262 257 272 268 263 250 234 225 229 228
22 12 6 9 17 87 72 351 339 320 312 313 314 311 310 311 312 302 303 303 295 287 280 277 277 277 281 287 292 289 281 278 274 262 261 269 250 253 247 232 205 203 213
18 354 357 4 346 27 200 312 325 320 316 315 312 308 308 309 309 312 306 296 286 280 275 275 272 278 285 288 285 282 280 274 267 254 226 247 238 240 240 203 195 206 229
4 349 360 347 338 358 276 317 334 326 319 317 312 310 308 306 307 307 302 294 289 283 276 274 272 280 284 285 285 282 277 272 268 238 186 231 258 264 247 222 203 220 253
6 352 350 340 345 3 10 0 346 331 325 321 312 309 306 308 308 304 300 293 290 291 299 307 303 298 293 295 304 308 315 305 294 316 115 244 270 291 288 243 208 240 270